sat.trackr.live / text

‹ back to catalog

TIANLIAN 2-04

NORAD 63361 · 2025-062A

PAYLOAD ACTIVE UNKNOWN

§ Identity

Operator
Country
PRC
Launch date
2025-03-26
Launch site
XICLF
Launch vehicle
Mass (kg)
RCS (m²)

Purposes: comms

External: N2YO · Heavens-Above · Gunter

§ Orbital elements

Epoch: 2026-09-19T03:39:51.818112Z

Period
1,436.11 min
Inclination
4.1407°
Eccentricity
0.0032879
Mean motion
1.00271194 rev/d
Perigee alt
35,648.1 km
Apogee alt
35,925.4 km
Semi-major
42,164.9 km
B*
0.0000e+0
RAAN
273.1402°
Arg perigee
8.0750°
Mean anomaly
211.8254°
Rev number
554

§ Raw data

TIANLIAN 2-041 63361U 25062A   26262.15268308 -.00000142  00000+0  00000+0 0  99912 63361   4.1407 273.1402 0032879   8.0750 211.8254  1.00271194  5547

JSON: /api/v1/satellites/63361 · /tle

For live sub-satellite position, see the globe view (requires WebGL).

§ Visibility from observer

Set your observer location to see the next 7 days of passes ≥ 10°. The values pass through the URL so the page stays shareable.

No JS? Fill the form by hand. The geolocation button needs JavaScript.